Location: Grand Moustoir
(47.8355°N, 3.3120°W)
Time: 21:29:01
(UTC+00:00)

Cosmos 2218 Rocket - Pass Details

Date: 20 January 2020
Orbit: 956 x 1006 km, 82.9° (Epoch: 17 February)

Event Time Altitude Azimuth Distance (km) Brightness Sun altitude
Rises 06:04:05 0° 351° (N) 3,747 6.9 -18.1°
Reaches altitude 10° 06:06:38 10° 352° (N) 2,792 6.2 -17.7°
Maximum altitude 06:13:05 82° 81° (E) 1,018 4.1 -16.6°
Drops below altitude 10° 06:19:26 10° 169° (S) 2,752 6.7 -15.6°
Sets 06:21:56 0° 170° (S) 3,690 7.3 -15.2°
